| time (UTC) | temp C | wind direction | speed KPH | gust KPH | rain 1hr cm | rain 24hr cm | rain mn cm | humidity % | barometer mb |
| 20260502232045 | 13 | 25 | 3.2 | 9.7 | 0.00 | 1.22 | 0.00 | 97 | 1012.1 |
| 20260502231046 | 13 | 51 | 3.2 | 6.4 | 0.00 | 1.22 | 0.00 | 96 | 1012.1 |
| 20260502230045 | 13 | 51 | 3.2 | 6.4 | 0.00 | 1.22 | 0.00 | 96 | 1012.3 |
| 20260502224044 | 13 | 61 | 4.8 | 8.0 | 0.00 | 1.22 | 0.00 | 96 | 1012.5 |
| 20260502222046 | 13 | 306 | 6.4 | 17.7 | 0.00 | 1.22 | 0.00 | 94 | 1012.3 |
| 20260502220045 | 14 | 143 | 1.6 | 4.8 | 0.00 | 1.22 | 0.00 | 91 | 1012.1 |
| 20260502215046 | 14 | 143 | 1.6 | 4.8 | 0.00 | 1.22 | 1.22 | 93 | 1012.2 |
| 20260502213047 | 14 | 99 | 3.2 | 4.8 | 0.00 | 1.22 | 1.22 | 93 | 1012.3 |
| 20260502211046 | 13 | 106 | 1.6 | 4.8 | 0.00 | 1.22 | 1.22 | 94 | 1012.4 |
| 20260502210049 | 13 | 101 | 3.2 | 4.8 | 0.00 | 1.22 | 1.22 | 94 | 1012.4 |
| 20260502205047 | 13 | 81 | 3.2 | 6.4 | 0.00 | 1.22 | 1.22 | 94 | 1012.4 |
| 20260502204047 | 14 | 81 | 3.2 | 6.4 | 0.00 | 1.22 | 1.22 | 93 | 1012.5 |
| 20260502203048 | 14 | 123 | 4.8 | 9.7 | 0.00 | 1.22 | 1.22 | 93 | 1012.5 |
| 20260502201054 | 14 | 130 | 9.7 | 14.5 | 0.00 | 1.22 | 1.22 | 93 | 1012.7 |
| 20260502195046 | 14 | 130 | 6.4 | 12.9 | 0.05 | 1.22 | 1.22 | 95 | 1012.8 |
| 20260502193046 | 14 | 159 | 1.6 | 6.4 | 0.10 | 1.22 | 1.22 | 96 | 1012.7 |
| 20260502192047 | 14 | 43 | 3.2 | 6.4 | 0.13 | 1.22 | 1.22 | 94 | 1012.7 |
| 20260502191050 | 14 | 51 | 3.2 | 6.4 | 0.15 | 1.22 | 1.22 | 94 | 1012.7 |
| 20260502190048 | 14 | 51 | 3.2 | 6.4 | 0.18 | 1.22 | 1.22 | 94 | 1012.9 |
| 20260502184046 | 14 | 341 | 3.2 | 6.4 | 0.69 | 1.17 | 1.17 | 93 | 1013.4 |
| 20260502183045 | 14 | 39 | 4.8 | 11.3 | 0.84 | 1.17 | 1.17 | 93 | 1013.5 |
| 20260502181047 | 14 | 36 | 6.4 | 9.7 | 0.94 | 1.09 | 1.09 | 92 | 1013.5 |
| 20260502164046 | 18 | 28 | 3.2 | 6.4 | 0.15 | 0.15 | 0.15 | 84 | 1012.8 |
| 20260502162044 | 21 | 162 | 0.0 | 1.6 | 0.10 | 0.10 | 0.10 | 73 | 1013.2 |
| 20260502161049 | 21 | 162 | 0.0 | 1.6 | 0.03 | 0.03 | 0.03 | 69 | 1013.2 |
| 20260502152046 | 23 | 290 | 6.4 | 9.7 | 0.00 | 0.00 | 0.00 | 51 | 1013.4 |
| 20260502151047 | 23 | 252 | 6.4 | 16.1 | 0.00 | 0.00 | 0.00 | 53 | 1013.7 |
| 20260502123044 | 23 | 255 | 12.9 | 29.0 | 0.00 | 0.00 | 0.00 | 53 | 1015.7 |
| 20260502122045 | 23 | 253 | 12.9 | 24.1 | 0.00 | 0.00 | 0.00 | 53 | 1015.9 |
| 20260502121043 | 23 | 257 | 12.9 | 29.0 | 0.00 | 0.00 | 0.00 | 53 | 1016.1 |
| 20260502114045 | 23 | 232 | 8.0 | 16.1 | 0.00 | 0.00 | 0.00 | 54 | 1016.3 |
| 20260502113045 | 23 | 232 | 8.0 | 16.1 | 0.00 | 0.00 | 0.00 | 55 | 1016.5 |
| 20260502112044 | 23 | 252 | 11.3 | 20.9 | 0.00 | 0.00 | 0.00 | 54 | 1016.6 |
| 20260502110043 | 23 | 234 | 9.7 | 22.5 | 0.00 | 0.00 | 0.00 | 55 | 1016.7 |
| 20260502105046 | 23 | 245 | 11.3 | 20.9 | 0.00 | 0.00 | 0.00 | 54 | 1016.8 |
| 20260502104045 | 22 | 157 | 8.0 | 17.7 | 0.00 | 0.00 | 0.00 | 54 | 1017.0 |
| 20260502103044 | 22 | 198 | 9.7 | 22.5 | 0.00 | 0.00 | 0.00 | 55 | 1017.1 |
| 20260502102044 | 22 | 225 | 8.0 | 19.3 | 0.00 | 0.00 | 0.00 | 55 | 1017.2 |
| 20260502101046 | 22 | 225 | 8.0 | 19.3 | 0.00 | 0.00 | 0.00 | 55 | 1017.3 |
| 20260502091045 | 20 | 194 | 8.0 | 16.1 | 0.00 | 0.00 | 0.00 | 55 | 1017.9 |
| 20260502071045 | 15 | 234 | 4.8 | 8.0 | 0.00 | 0.00 | 0.00 | 59 | 1018.5 |
| 20260502070042 | 15 | 238 | 6.4 | 11.3 | 0.00 | 0.00 | 0.00 | 57 | 1018.5 |
| 20260502065047 | 15 | 238 | 6.4 | 11.3 | 0.00 | 0.00 | 0.00 | 56 | 1018.6 |
| 20260502064045 | 15 | 234 | 4.8 | 9.7 | 0.00 | 0.00 | 0.00 | 55 | 1018.6 |
| 20260502063046 | 16 | 214 | 1.6 | 6.4 | 0.00 | 0.00 | 0.00 | 53 | 1018.6 |
| 20260502062044 | 15 | 199 | 3.2 | 6.4 | 0.00 | 0.00 | 0.00 | 53 | 1018.5 |
| 20260502061044 | 15 | 185 | 3.2 | 6.4 | 0.00 | 0.00 | 0.00 | 53 | 1018.5 |
| 20260502060046 | 14 | 185 | 3.2 | 6.4 | 0.00 | 0.00 | 0.00 | 53 | 1018.5 |
| 20260502055044 | 14 | 249 | 3.2 | 6.4 | 0.00 | 0.00 | 0.00 | 52 | 1018.4 |
| 20260502053047 | 13 | 248 | 3.2 | 6.4 | 0.00 | 0.00 | 0.00 | 52 | 1018.5 |
| 20260502052041 | 13 | 212 | 3.2 | 8.0 | 0.00 | 0.00 | 0.00 | 51 | 1018.4 |
| 20260502051042 | 13 | 212 | 3.2 | 8.0 | 0.00 | 0.00 | 0.00 | 52 | 1018.5 |
| 20260502050044 | 13 | 184 | 4.8 | 9.7 | 0.00 | 0.00 | 0.00 | 52 | 1018.5 |
| 20260502045043 | 13 | 165 | 4.8 | 8.0 | 0.00 | 0.00 | 0.00 | 53 | 1018.3 |
| 20260502044044 | 12 | 165 | 4.8 | 8.0 | 0.00 | 0.00 | 0.00 | 52 | 1018.2 |
| 20260502041042 | 10 | 88 | 3.2 | 6.4 | 0.00 | 0.00 | 0.00 | 61 | 1018.4 |
| 20260502040044 | 10 | 88 | 3.2 | 6.4 | 0.00 | 0.00 | 0.00 | 64 | 1018.6 |
| 20260502035046 | 11 | 251 | 6.4 | 9.7 | 0.00 | 0.00 | 0.00 | 58 | 1018.7 |
| 20260502034042 | 11 | 251 | 6.4 | 9.7 | 0.00 | 0.00 | 0.00 | 59 | 1018.8 |
| 20260502033044 | 11 | 267 | 3.2 | 4.8 | 0.00 | 0.00 | 0.00 | 62 | 1018.7 |
| 20260502032047 | 11 | 272 | 6.4 | 11.3 | 0.00 | 0.00 | 0.00 | 61 | 1018.8 |
| 20260502031044 | 11 | 209 | 3.2 | 11.3 | 0.00 | 0.00 | 0.00 | 59 | 1018.7 |
| 20260502030045 | 11 | 183 | 1.6 | 4.8 | 0.00 | 0.00 | 0.00 | 56 | 1018.5 |
| 20260502025043 | 11 | 182 | 0.0 | 3.2 | 0.00 | 0.00 | 0.00 | 57 | 1018.7 |
| 20260502024042 | 10 | 182 | 0.0 | 3.2 | 0.00 | 0.00 | 0.00 | 60 | 1018.7 |
| 20260502023043 | 10 | 161 | 1.6 | 3.2 | 0.00 | 0.00 | 0.00 | 61 | 1018.7 |
| 20260502022043 | 10 | 134 | 1.6 | 3.2 | 0.00 | 0.00 | 0.00 | 61 | 1018.8 |
| 20260502021047 | 10 | 126 | 1.6 | 3.2 | 0.00 | 0.00 | 0.00 | 61 | 1018.9 |
| 20260502020045 | 10 | 94 | 1.6 | 4.8 | 0.00 | 0.00 | 0.00 | 60 | 1019.0 |
| 20260502015045 | 10 | 94 | 1.6 | 4.8 | 0.00 | 0.00 | 0.00 | 57 | 1019.0 |
| 20260502014044 | 11 | 109 | 1.6 | 4.8 | 0.00 | 0.00 | 0.00 | 56 | 1019.0 |
| 20260502013046 | 10 | 132 | 1.6 | 3.2 | 0.00 | 0.00 | 0.00 | 56 | 1019.1 |
| 20260502012045 | 10 | 155 | 1.6 | 4.8 | 0.00 | 0.00 | 0.00 | 57 | 1019.3 |
| 20260502011045 | 11 | 176 | 1.6 | 3.2 | 0.00 | 0.00 | 0.00 | 55 | 1019.4 |
| 20260502010044 | 11 | 176 | 1.6 | 3.2 | 0.00 | 0.00 | 0.00 | 54 | 1019.5 |
| 20260502005046 | 11 | 185 | 1.6 | 4.8 | 0.00 | 0.00 | 0.00 | 52 | 1019.5 |
| 20260502004044 | 12 | 131 | 0.0 | 3.2 | 0.00 | 0.00 | 0.00 | 51 | 1019.5 |
| 20260502003045 | 12 | 95 | 1.6 | 3.2 | 0.00 | 0.00 | 0.00 | 49 | 1019.6 |
| 20260502002045 | 12 | 104 | 1.6 | 3.2 | 0.00 | 0.00 | 0.00 | 49 | 1019.6 |
| 20260501235047 | 12 | 94 | 3.2 | 4.8 | 0.00 | 0.00 | 0.00 | 48 | 1019.9 |
| 20260501234047 | 13 | 84 | 1.6 | 4.8 | 0.00 | 0.00 | 0.00 | 47 | 1019.9 |